When you browse on this site, cookies collect data to enhance your experience and personalize the content and advertising you see.
Visit our Privacy Policy to learn more. By continuing to use the site, you agree to this use of cookies and data.
  • In Slovakia
  • List of Countries
  • For 7 days
  • Water Temperature
  • Satellite Maps
  • Weather Map
  • Weather Widgets
  • user-avatar
    Login

    Hourly Weather Luanda

    Today, 21 May, Tuesday

    Time Temperature Precipitation Wind Pressure Humidity
    00:00 +25°C° 0 mm 3 mps 753 mmHg 90%
    01:00 +25°C° 0 mm 2 mps 753 mmHg 91%
    02:00 +25°C° 0 mm 2 mps 753 mmHg 92%
    03:00 +24°C° 0 mm 2 mps 753 mmHg 93%
    04:00 +24°C° 0 mm 2 mps 753 mmHg 94%
    05:00 +24°C° 0 mm 2 mps 753 mmHg 93%
    06:00 +25°C° 0 mm 2 mps 753 mmHg 91%
    07:00 +25°C° 0 mm 2 mps 754 mmHg 89%
    08:00 +27°C° 0 mm 1 mps 754 mmHg 81%
    09:00 +29°C° 0 mm 1 mps 754 mmHg 73%
    10:00 +31°C° 0 mm 1 mps 754 mmHg 65%
    11:00 +32°C° 0 mm 2 mps 753 mmHg 62%
    12:00 +34°C° 0 mm 2 mps 753 mmHg 58%
    13:00 +35°C° 0 mm 3 mps 752 mmHg 55%
    14:00 +34°C° 0 mm 4 mps 752 mmHg 59%
    15:00 +33°C° 0 mm 4 mps 751 mmHg 62%
    16:00 +32°C° 0 mm 5 mps 751 mmHg 65%
    17:00 +30°C° 0 mm 5 mps 751 mmHg 71%
    18:00 +29°C° 0 mm 5 mps 752 mmHg 76%
    19:00 +27°C° 0 mm 5 mps 752 mmHg 81%
    20:00 +27°C° 0 mm 4 mps 752 mmHg 83%
    21:00 +27°C° 0 mm 4 mps 753 mmHg 84%
    22:00 +27°C° 0 mm 3 mps 753 mmHg 86%
    23:00 +26°C° 0 mm 3 mps 753 mmHg 87%

    Tomorrow, 22 May, Wednesday

    Time Temperature Precipitation Wind Pressure Humidity
    00:00 +26°C° 0 mm 2 mps 754 mmHg 89%
    01:00 +25°C° 0 mm 2 mps 754 mmHg 90%
    02:00 +25°C° 0 mm 2 mps 753 mmHg 91%
    03:00 +25°C° 0 mm 2 mps 753 mmHg 92%
    04:00 +25°C° 0 mm 2 mps 753 mmHg 94%
    05:00 +25°C° 0 mm 2 mps 753 mmHg 92%
    06:00 +25°C° 0 mm 2 mps 754 mmHg 91%
    07:00 +25°C° 0 mm 2 mps 754 mmHg 90%
    08:00 +27°C° 0 mm 1 mps 754 mmHg 81%
    09:00 +29°C° 0 mm 1 mps 754 mmHg 72%
    10:00 +29°C° 0 mm 0 mps 755 mmHg 63%
    11:00 +32°C° 0 mm 1 mps 754 mmHg 60%
    12:00 +34°C° 0 mm 2 mps 754 mmHg 58%
    13:00 +34°C° 0 mm 4 mps 753 mmHg 55%
    14:00 +33°C° 0 mm 4 mps 753 mmHg 59%
    15:00 +33°C° 0 mm 4 mps 752 mmHg 63%
    16:00 +32°C° 0 mm 5 mps 752 mmHg 67%
    17:00 +29°C° 0 mm 4 mps 752 mmHg 72%
    18:00 +28°C° 0 mm 4 mps 753 mmHg 77%
    19:00 +27°C° 0 mm 4 mps 753 mmHg 82%
    20:00 +27°C° 0 mm 4 mps 754 mmHg 84%
    21:00 +27°C° 0 mm 3 mps 754 mmHg 85%
    22:00 +26°C° 0 mm 3 mps 754 mmHg 87%
    23:00 +26°C° 0 mm 3 mps 754 mmHg 89%

    Day after tomorrow, 23 May, Thursday

    Time Temperature Precipitation Wind Pressure Humidity
    00:00 +26°C° 0 mm 3 mps 754 mmHg 90%
    01:00 +25°C° 0 mm 3 mps 754 mmHg 91%
    02:00 +25°C° 0 mm 3 mps 754 mmHg 91%
    03:00 +25°C° 0 mm 3 mps 753 mmHg 91%
    04:00 +25°C° 0 mm 3 mps 753 mmHg 92%
    05:00 +25°C° 0 mm 3 mps 753 mmHg 92%
    06:00 +25°C° 0 mm 3 mps 753 mmHg 92%
    07:00 +25°C° 0 mm 3 mps 754 mmHg 92%
    08:00 +27°C° 0 mm 2 mps 754 mmHg 82%
    09:00 +28°C° 0 mm 2 mps 754 mmHg 73%
    10:00 +30°C° 0 mm 1 mps 755 mmHg 63%
    11:00 +32°C° 0 mm 2 mps 754 mmHg 58%
    12:00 +34°C° 0 mm 2 mps 753 mmHg 54%
    13:00 +35°C° 0 mm 3 mps 753 mmHg 49%
    14:00 +34°C° 0 mm 4 mps 752 mmHg 53%
    15:00 +33°C° 0 mm 5 mps 751 mmHg 58%
    16:00 +32°C° 0 mm 5 mps 751 mmHg 63%
    17:00 +30°C° 0 mm 5 mps 751 mmHg 69%
    18:00 +28°C° 0 mm 5 mps 752 mmHg 75%
    19:00 +27°C° 0 mm 5 mps 752 mmHg 82%
    20:00 +27°C° 0 mm 4 mps 753 mmHg 83%
    21:00 +26°C° 0 mm 3 mps 754 mmHg 85%
    22:00 +26°C° 0 mm 3 mps 754 mmHg 86%
    23:00 +26°C° 0 mm 2 mps 754 mmHg 87%

    24 May, Friday

    Time Temperature Precipitation Wind Pressure Humidity
    00:00 +25°C° 0 mm 2 mps 753 mmHg 88%
    01:00 +25°C° 0 mm 2 mps 753 mmHg 89%
    02:00 +25°C° 0 mm 2 mps 753 mmHg 90%
    03:00 +25°C° 0 mm 2 mps 753 mmHg 91%
    04:00 +24°C° 0 mm 2 mps 753 mmHg 92%
    05:00 +25°C° 0 mm 2 mps 753 mmHg 91%
    06:00 +25°C° 0 mm 2 mps 753 mmHg 90%
    07:00 +25°C° 0 mm 2 mps 754 mmHg 89%
    08:00 +27°C° 0 mm 2 mps 754 mmHg 80%
    09:00 +28°C° 0 mm 1 mps 754 mmHg 71%
    10:00 +30°C° 0 mm 1 mps 755 mmHg 61%
    11:00 +31°C° 0 mm 2 mps 754 mmHg 57%
    12:00 +34°C° 0 mm 3 mps 753 mmHg 53%
    13:00 +35°C° 0 mm 3 mps 752 mmHg 49%
    14:00 +34°C° 0 mm 4 mps 752 mmHg 53%
    15:00 +33°C° 0 mm 5 mps 752 mmHg 58%
    16:00 +32°C° 0 mm 6 mps 751 mmHg 62%
    17:00 +30°C° 0 mm 5 mps 752 mmHg 67%
    18:00 +28°C° 0 mm 5 mps 753 mmHg 71%
    19:00 +27°C° 0 mm 5 mps 753 mmHg 76%
    20:00 +27°C° 0 mm 4 mps 754 mmHg 78%
    21:00 +26°C° 0 mm 4 mps 754 mmHg 80%
    22:00 +26°C° 0 mm 4 mps 755 mmHg 83%
    23:00 +26°C° 0 mm 4 mps 754 mmHg 84%

    25 May, Saturday

    Time Temperature Precipitation Wind Pressure Humidity
    00:00 +25°C° 0 mm 3 mps 754 mmHg 86%
    01:00 +25°C° 0 mm 3 mps 754 mmHg 88%
    02:00 +25°C° 0 mm 3 mps 754 mmHg 89%
    03:00 +25°C° 0 mm 3 mps 753 mmHg 91%
    04:00 +24°C° 0 mm 3 mps 753 mmHg 92%
    05:00 +24°C° 0 mm 3 mps 753 mmHg 91%
    06:00 +24°C° 0 mm 3 mps 754 mmHg 91%
    07:00 +24°C° 0 mm 3 mps 754 mmHg 91%
    08:00 +26°C° 0 mm 2 mps 754 mmHg 80%
    09:00 +28°C° 0 mm 2 mps 755 mmHg 70%
    10:00 +30°C° 0 mm 2 mps 755 mmHg 59%
    11:00 +33°C° 0 mm 3 mps 754 mmHg 54%
    12:00 +34°C° 0 mm 3 mps 753 mmHg 50%
    13:00 +35°C° 0 mm 4 mps 752 mmHg 45%
    14:00 +34°C° 0 mm 4 mps 752 mmHg 52%
    15:00 +33°C° 0 mm 5 mps 751 mmHg 58%
    16:00 +32°C° 0 mm 5 mps 751 mmHg 64%
    17:00 +30°C° 0 mm 5 mps 751 mmHg 69%
    18:00 +28°C° 0 mm 5 mps 752 mmHg 73%
    19:00 +27°C° 0 mm 5 mps 753 mmHg 78%
    20:00 +27°C° 0 mm 4 mps 753 mmHg 80%
    21:00 +26°C° 0 mm 3 mps 753 mmHg 82%
    22:00 +26°C° 0 mm 3 mps 754 mmHg 85%
    23:00 +26°C° 0 mm 2 mps 754 mmHg 86%

    26 May, Sunday

    Time Temperature Precipitation Wind Pressure Humidity
    00:00 +25°C° 0 mm 2 mps 754 mmHg 88%
    01:00 +25°C° 0 mm 2 mps 753 mmHg 89%
    02:00 +25°C° 0 mm 2 mps 753 mmHg 90%
    03:00 +24°C° 0 mm 2 mps 753 mmHg 92%
    04:00 +24°C° 0 mm 2 mps 753 mmHg 93%
    05:00 +24°C° 0 mm 2 mps 753 mmHg 92%
    06:00 +24°C° 0 mm 2 mps 754 mmHg 91%
    07:00 +25°C° 0 mm 3 mps 754 mmHg 90%
    08:00 +27°C° 0 mm 2 mps 754 mmHg 81%
    09:00 +29°C° 0 mm 2 mps 754 mmHg 71%
    10:00 +31°C° 0 mm 1 mps 754 mmHg 61%
    11:00 +32°C° 0 mm 2 mps 753 mmHg 57%
    12:00 +34°C° 0 mm 2 mps 753 mmHg 53%
    13:00 +35°C° 0 mm 3 mps 752 mmHg 49%
    14:00 +34°C° 0 mm 4 mps 751 mmHg 53%
    15:00 +34°C° 0 mm 5 mps 751 mmHg 57%
    16:00 +33°C° 0 mm 5 mps 750 mmHg 60%
    17:00 +30°C° 0 mm 6 mps 751 mmHg 66%
    18:00 +29°C° 0 mm 6 mps 752 mmHg 71%
    19:00 +27°C° 0 mm 6 mps 752 mmHg 77%
    20:00 +27°C° 0 mm 5 mps 753 mmHg 79%
    21:00 +26°C° 0 mm 4 mps 753 mmHg 82%
    22:00 +26°C° 0 mm 3 mps 753 mmHg 84%
    23:00 +26°C° 0 mm 3 mps 753 mmHg 86%
    Show more